This demonstration page uses our WeatherBlox Daily Observations layout. Learn more.

Left ArrowRight Arrow

39.08367, -84.50855

Hourly Observations for April 15, 2022

Temp ( °F °C ) Dew Point ( °F °C ) Humidity (%) Winds ( mph kmh ) Pressure ( in mb ) Visibility ( mi km ) Precip ( " mm )
12:53 am 00:53 Partly Cloudy 44 6.7 37 2.8 76 76 Calm 30.11 1020 10 16 0.00 0.00
1:53 am 01:53 Mostly Cloudy 42 5.6 37 2.8 82 82 Calm 30.11 1020 10 16 0.00 0.00
2:53 am 02:53 Clear 39 3.9 35 1.7 86 86 Calm 30.11 1020 10 16 0.00 0.00
3:53 am 03:53 Clear 39 3.9 37 2.8 93 93 Calm 30.11 1020 10 16 0.00 0.00
4:53 am 04:53 Clear 37 2.8 36 2.2 96 96 Calm 30.10 1019 10 16 0.00 0.00
5:53 am 05:53 Clear 37 2.8 35 1.7 93 93 Calm 30.09 1019 10 16 0.00 0.00
6:53 am 06:53 Clear 37 2.8 36 2.2 96 96 Calm 30.10 1019 10 16 0.00 0.00
7:53 am 07:53 Sunny 38 3.3 36 2.2 93 93 Calm 30.12 1020 10 16 0.00 0.00
8:53 am 08:53 Sunny 48 8.9 38 3.3 68 68 WSW 5 7 30.12 1020 10 16 0.00 0.00
9:53 am 09:53 Sunny 56 13.3 37 2.8 49 49 SSW 7 11 30.12 1020 10 16 0.00 0.00
10:53 am 10:53 Sunny 63 17.2 35 1.7 35 35 S 14 22 30.09 1019 10 16 0.00 0.00
11:53 am 11:53 Sunny 66 18.9 32 0 28 28 SSW 16 26 30.07 1018 10 16 0.00 0.00
12:53 pm 12:53 Sunny 69 20.6 27 -2.8 21 21 SW 22 35 30.03 1017 10 16 0.00 0.00
1:53 pm 13:53 Sunny 71 21.7 31 -0.6 23 23 S 24 39 30.00 1016 10 16 0.00 0.00
2:53 pm 14:53 Sunny 70 21.1 33 0.6 26 26 SSW 21 33 30.00 1016 10 16 0.00 0.00
3:53 pm 15:53 Sunny 71 21.7 30 -1.1 22 22 SSW 18 30 29.98 1015 10 16 0.00 0.00
4:53 pm 16:53 Sunny 69 20.6 25 -3.9 19 19 SSW 21 33 29.97 1015 10 16 0.00 0.00
5:53 pm 17:53 Partly Cloudy 66 18.9 32 0 28 28 SSW 13 20 29.96 1015 10 16 0.00 0.00
6:53 pm 18:53 Mostly Cloudy 66 18.9 31 -0.6 27 27 SSW 8 13 29.95 1014 10 16 0.00 0.00
7:53 pm 19:53 Partly Cloudy 64 17.8 32 0 30 30 SSW 10 17 29.96 1015 10 16 0.00 0.00
8:53 pm 20:53 Mostly Cloudy 65 18.3 30 -1.1 27 27 SW 14 22 29.98 1015 10 16 0.00 0.00
9:53 pm 21:53 Cloudy 63 17.2 35 1.7 35 35 SSW 28 44 30.01 1016 10 16 0.00 0.00
10:53 pm 22:53 Cloudy with Light Rain 56 13.3 46 7.8 70 70 SSW 14 22 30.01 1016 10 16 0.00 0.00
11:53 pm 23:53 Mostly Cloudy 55 12.8 46 7.8 72 72 SSW 5 7 29.96 1015 10 16 0.00 0.00

Powered by AerisWeather